Tracking 20093 objects as of 16-Dec-2019
HD Live streaming from Space Station
objects crossing your sky now

CZ-3B R/B

Track CZ-3B R/B now!


NORAD ID: 41022
Int'l Code: 2015-063B
Perigee: 229.9 km
Apogee: 32,235.6 km
Inclination: 27.0 °
Period: 563.7 minutes
Semi major axis: 22603 km
RCS: Unknown
Launch date: November 3, 2015
Source: People's Republic of China (PRC)
Launch site: Xichang Space Center, China (XSC)

Note: This is a ROCKET BODY
aabbcc
Your satellite tracking list
Your tracking list is empty




NASA's NSSDC Master Catalog

Two Line Element Set (TLE):
1 41022U 15063B   19349.63772967  .00002347  00000-0  32990-3 0  9999
2 41022  26.9926  48.7297 7079727  93.1388 342.4539  2.55465566 35791
Source of the keplerian elements: AFSPC